| time (UTC) | temp F | wind direction | speed MPH | gust MPH | rain 1hr in | rain 24hr in | rain mn in | humidity % | barometer mb |
| 20260510090942 | 37 | 337 | 0.0 | 0.0 | 0.00 | 0.00 | 0.00 | ||
| 20260510090425 | 36 | 151 | 0.0 | 0.0 | 0.00 | 0.00 | 0.00 | ||
| 20260510085908 | 36 | 130 | 0.0 | 0.0 | 0.00 | 0.00 | 0.00 | ||
| 20260510085351 | 38 | 157 | 0.0 | 0.0 | 0.00 | 0.00 | 0.00 | ||
| 20260510084834 | 38 | 150 | 0.0 | 0.0 | 0.00 | 0.00 | 0.00 | ||
| 20260510084317 | 37 | 135 | 0.0 | 0.0 | 0.00 | 0.00 | 0.00 | ||
| 20260510083800 | 40 | 155 | 0.0 | 0.0 | 0.00 | 0.00 | 0.00 | ||
| 20260510083243 | 40 | 178 | 0.0 | 0.0 | 0.00 | 0.00 | 0.00 | ||
| 20260510082726 | 39 | 142 | 0.0 | 0.0 | 0.00 | 0.00 | 0.00 | ||
| 20260510082209 | 38 | 152 | 0.0 | 0.0 | 0.00 | 0.00 | 0.00 | ||
| 20260510081653 | 38 | 156 | 0.0 | 0.0 | 0.00 | 0.00 | 0.00 | ||
| 20260510081135 | 39 | 337 | 0.0 | 0.0 | 0.00 | 0.00 | 0.00 | ||
| 20260510080619 | 39 | 337 | 0.0 | 0.0 | 0.00 | 0.00 | 0.00 | ||
| 20260510075545 | 40 | 159 | 0.0 | 0.0 | 0.00 | 0.00 | 0.00 | ||
| 20260510075027 | 39 | 180 | 0.0 | 0.0 | 0.00 | 0.00 | 0.00 | ||
| 20260510074511 | 39 | 148 | 0.0 | 0.0 | 0.00 | 0.00 | 0.00 | ||
| 20260510073953 | 39 | 168 | 0.0 | 0.0 | 0.00 | 0.00 | 0.00 | ||
| 20260510073437 | 38 | 147 | 0.0 | 0.0 | 0.00 | 0.00 | 0.00 | ||
| 20260510072920 | 38 | 141 | 0.0 | 0.0 | 0.00 | 0.00 | 0.00 | ||
| 20260510072403 | 38 | 150 | 0.0 | 0.0 | 0.00 | 0.00 | 0.00 | ||
| 20260510071846 | 38 | 247 | 0.0 | 0.0 | 0.00 | 0.00 | 0.00 | ||
| 20260510071329 | 37 | 126 | 0.0 | 0.0 | 0.00 | 0.00 | 0.00 | ||
| 20260510070812 | 37 | 337 | 0.0 | 0.0 | 0.00 | 0.00 | 0.00 | ||
| 20260510070255 | 37 | 337 | 0.0 | 0.0 | 0.00 | 0.00 | 0.00 | ||
| 20260510065738 | 37 | 137 | 0.0 | 0.0 | 0.00 | 0.00 | 0.00 | ||
| 20260510065221 | 36 | 121 | 0.0 | 0.0 | 0.00 | 0.00 | 0.00 | ||
| 20260510064704 | 36 | 136 | 0.0 | 0.0 | 0.00 | 0.00 | 0.00 | ||
| 20260510064147 | 35 | 114 | 0.0 | 0.0 | 0.00 | 0.00 | 0.00 | ||
| 20260510063630 | 35 | 337 | 0.0 | 0.0 | 0.00 | 0.00 | 0.00 | ||
| 20260510063113 | 34 | 116 | 0.0 | 0.0 | 0.00 | 0.00 | 0.00 | ||
| 20260510062556 | 32 | 129 | 0.0 | 0.0 | 0.00 | 0.00 | 0.00 | ||
| 20260510062039 | 32 | 0 | 0.0 | 0.0 | 0.00 | 0.00 | 0.00 | ||
| 20260510061522 | 32 | 337 | 0.0 | 0.0 | 0.00 | 0.00 | 0.00 | ||
| 20260510061005 | 31 | 139 | 0.0 | 0.0 | 0.00 | 0.00 | 0.00 | ||
| 20260510060448 | 32 | 135 | 0.0 | 0.0 | 0.00 | 0.00 | 0.00 | ||
| 20260510055414 | 32 | 139 | 0.0 | 0.0 | 0.00 | 0.00 | 0.00 | ||
| 20260510054857 | 32 | 143 | 0.0 | 0.0 | 0.00 | 0.00 | 0.00 | ||
| 20260510054340 | 32 | 163 | 0.0 | 0.0 | 0.00 | 0.00 | 0.00 | ||
| 20260510053823 | 31 | 153 | 0.0 | 0.0 | 0.00 | 0.00 | 0.00 | ||
| 20260510053306 | 30 | 168 | 0.0 | 0.0 | 0.00 | 0.00 | 0.00 | ||
| 20260510052749 | 28 | 144 | 0.0 | 0.0 | 0.00 | 0.00 | 0.00 | ||
| 20260510052232 | 26 | 160 | 0.0 | 0.0 | 0.00 | 0.00 | 0.00 | ||
| 20260510051715 | 25 | 171 | 0.0 | 0.0 | 0.00 | 0.00 | 0.00 | ||
| 20260510051158 | 25 | 162 | 0.0 | 0.0 | 0.00 | 0.00 | 0.00 | ||
| 20260510050641 | 24 | 165 | 0.0 | 0.0 | 0.00 | 0.00 | 0.00 | ||
| 20260510050124 | 24 | 173 | 0.0 | 0.0 | 0.00 | 0.00 | 0.00 | ||
| 20260510045608 | 24 | 160 | 0.0 | 0.0 | 0.00 | 0.00 | 0.00 | ||
| 20260510045050 | 24 | 152 | 0.0 | 0.0 | 0.00 | 0.00 | 0.00 | ||
| 20260510044534 | 25 | 158 | 0.0 | 0.0 | 0.00 | 0.00 | 0.00 | ||
| 20260510044016 | 25 | 138 | 0.0 | 0.0 | 0.00 | 0.00 | 0.00 | ||
| 20260510043500 | 25 | 166 | 0.0 | 0.0 | 0.00 | 0.00 | 0.00 | ||
| 20260510042942 | 25 | 138 | 0.0 | 0.0 | 0.00 | 0.00 | 0.00 | ||
| 20260510042426 | 25 | 125 | 0.0 | 0.0 | 0.00 | 0.00 | 0.00 | ||
| 20260510041908 | 25 | 161 | 0.0 | 0.0 | 0.00 | 0.00 | 0.00 | ||
| 20260510041352 | 25 | 145 | 0.0 | 0.0 | 0.00 | 0.00 | 0.00 | ||
| 20260510040834 | 25 | 188 | 0.0 | 0.0 | 0.00 | 0.00 | 0.00 | ||
| 20260510040318 | 25 | 140 | 0.0 | 0.0 | 0.00 | 0.00 | 0.00 | ||
| 20260510035801 | 25 | 139 | 0.0 | 0.0 | 0.00 | 0.00 | 0.00 | ||
| 20260510034727 | 25 | 135 | 0.0 | 0.0 | 0.00 | 0.00 | 0.00 | ||
| 20260510034210 | 25 | 159 | 0.0 | 0.0 | 0.00 | 0.00 | 0.00 | ||
| 20260510033653 | 25 | 138 | 0.0 | 0.0 | 0.00 | 0.00 | 0.00 | ||
| 20260510032619 | 25 | 142 | 0.0 | 0.0 | 0.00 | 0.00 | 0.00 | ||
| 20260510032102 | 25 | 137 | 0.0 | 0.0 | 0.00 | 0.00 | 0.00 | ||
| 20260510031545 | 25 | 126 | 0.0 | 0.0 | 0.00 | 0.00 | 0.00 | ||
| 20260510031028 | 25 | 113 | 0.0 | 0.0 | 0.00 | 0.00 | 0.00 | ||
| 20260510030511 | 25 | 105 | 0.0 | 0.0 | 0.00 | 0.00 | 0.00 | ||
| 20260510023329 | 25 | 111 | 0.0 | 0.0 | 0.00 | 0.00 | 0.00 | ||
| 20260510022812 | 25 | 114 | 0.0 | 0.0 | 0.00 | 0.00 | 0.00 | ||
| 20260510022255 | 25 | 115 | 0.0 | 0.0 | 0.00 | 0.00 | 0.00 | ||
| 20260510021738 | 25 | 116 | 0.0 | 0.0 | 0.00 | 0.00 | 0.00 | ||
| 20260510021221 | 25 | 136 | 0.0 | 0.0 | 0.00 | 0.00 | 0.00 | ||
| 20260510020704 | 25 | 136 | 0.0 | 0.0 | 0.00 | 0.00 | 0.00 | ||
| 20260510020147 | 25 | 129 | 0.0 | 0.0 | 0.00 | 0.00 | 0.00 | ||
| 20260510015630 | 25 | 126 | 0.0 | 0.0 | 0.00 | 0.00 | 0.00 | ||
| 20260510015113 | 25 | 135 | 0.0 | 0.0 | 0.00 | 0.00 | 0.00 | ||
| 20260510014556 | 25 | 0 | 0.0 | 0.0 | 0.00 | 0.00 | 0.00 | ||
| 20260510014115 | 25 | 330 | 0.0 | 0.0 | 0.00 | 0.00 | 0.00 | ||
| 20260510013523 | 25 | 335 | 0.0 | 0.0 | 0.00 | 0.00 | 0.00 | ||
| 20260510013005 | 25 | 345 | 0.0 | 0.0 | 0.00 | 0.00 | 0.00 | ||
| 20260510012449 | 25 | 135 | 0.0 | 0.0 | 0.00 | 0.00 | 0.00 | ||
| 20260510011931 | 25 | 337 | 0.0 | 0.0 | 0.00 | 0.00 | 0.00 | ||
| 20260510011415 | 25 | 337 | 0.0 | 0.0 | 0.00 | 0.00 | 0.00 | ||
| 20260510010857 | 26 | 137 | 0.0 | 0.0 | 0.00 | 0.00 | 0.00 | ||
| 20260510010341 | 26 | 137 | 0.0 | 0.0 | 0.00 | 0.00 | 0.00 | ||
| 20260510005823 | 26 | 337 | 0.0 | 0.0 | 0.00 | 0.00 | 0.00 | ||
| 20260510005307 | 26 | 138 | 0.0 | 0.0 | 0.00 | 0.00 | 0.00 | ||
| 20260510004749 | 26 | 135 | 0.0 | 0.0 | 0.00 | 0.00 | 0.00 | ||
| 20260510004233 | 26 | 337 | 0.0 | 0.0 | 0.00 | 0.00 | 0.00 | ||
| 20260510003716 | 26 | 135 | 0.0 | 0.0 | 0.00 | 0.00 | 0.00 | ||
| 20260510003159 | 26 | 136 | 0.0 | 0.0 | 0.00 | 0.00 | 0.00 | ||
| 20260510002642 | 26 | 137 | 0.0 | 0.0 | 0.00 | 0.00 | 0.00 | ||
| 20260510002125 | 26 | 136 | 0.0 | 0.0 | 0.00 | 0.00 | 0.00 | ||
| 20260510001608 | 26 | 120 | 0.0 | 0.0 | 0.00 | 0.00 | 0.00 | ||
| 20260510001051 | 26 | 202 | 0.0 | 0.0 | 0.00 | 0.00 | 0.00 | ||
| 20260510000534 | 26 | 114 | 0.0 | 0.0 | 0.00 | 0.00 | 0.00 | ||
| 20260510000017 | 26 | 337 | 0.0 | 0.0 | 0.00 | 0.00 | 0.00 | ||
| 20260509235500 | 26 | 135 | 0.0 | 0.0 | 0.00 | 0.00 | 0.00 | ||
| 20260509234943 | 27 | 165 | 0.0 | 0.0 | 0.00 | 0.00 | 0.00 | ||
| 20260509234426 | 27 | 137 | 0.0 | 0.0 | 0.00 | 0.00 | 0.00 | ||
| 20260509233909 | 27 | 135 | 0.0 | 0.0 | 0.00 | 0.00 | 0.00 | ||
| 20260509233352 | 27 | 145 | 0.0 | 0.0 | 0.00 | 0.00 | 0.00 | ||
| 20260509232835 | 27 | 140 | 0.0 | 0.0 | 0.00 | 0.00 | 0.00 | ||
| 20260509232318 | 27 | 139 | 0.0 | 0.0 | 0.00 | 0.00 | 0.00 | ||
| 20260509231801 | 27 | 138 | 0.0 | 0.0 | 0.00 | 0.00 | 0.00 | ||
| 20260509231244 | 27 | 141 | 0.0 | 0.0 | 0.00 | 0.00 | 0.00 | ||
| 20260509230727 | 27 | 140 | 0.0 | 0.0 | 0.00 | 0.00 | 0.00 | ||
| 20260509230210 | 27 | 140 | 0.0 | 0.0 | 0.00 | 0.00 | 0.00 | ||
| 20260509225653 | 27 | 138 | 0.0 | 0.0 | 0.00 | 0.00 | 0.00 | ||
| 20260509225136 | 27 | 138 | 0.0 | 0.0 | 0.00 | 0.00 | 0.00 | ||
| 20260509224619 | 27 | 141 | 0.0 | 0.0 | 0.00 | 0.00 | 0.00 | ||
| 20260509224102 | 27 | 137 | 0.0 | 0.0 | 0.00 | 0.00 | 0.00 | ||
| 20260509223545 | 28 | 147 | 0.0 | 0.0 | 0.00 | 0.00 | 0.00 | ||
| 20260509223028 | 28 | 163 | 0.0 | 0.0 | 0.00 | 0.00 | 0.00 | ||
| 20260509222511 | 28 | 162 | 0.0 | 0.0 | 0.00 | 0.00 | 0.00 | ||
| 20260509221954 | 28 | 157 | 0.0 | 0.0 | 0.00 | 0.00 | 0.00 | ||
| 20260509221438 | 28 | 163 | 0.0 | 0.0 | 0.00 | 0.00 | 0.00 | ||
| 20260509220920 | 28 | 166 | 0.0 | 0.0 | 0.00 | 0.00 | 0.00 | ||
| 20260509220404 | 28 | 160 | 0.0 | 0.0 | 0.00 | 0.00 | 0.00 | ||
| 20260509215846 | 29 | 163 | 0.0 | 0.0 | 0.00 | 0.00 | 0.00 | ||
| 20260509215330 | 28 | 162 | 0.0 | 0.0 | 0.00 | 0.00 | 0.00 | ||
| 20260509214812 | 29 | 140 | 0.0 | 0.0 | 0.00 | 0.00 | 0.00 | ||
| 20260509214256 | 29 | 194 | 0.0 | 0.0 | 0.00 | 0.00 | 0.00 | ||
| 20260509213738 | 29 | 157 | 0.0 | 0.0 | 0.00 | 0.00 | 0.00 | ||
| 20260509213222 | 29 | 337 | 0.0 | 0.0 | 0.00 | 0.00 | 0.00 | ||
| 20260509212704 | 29 | 159 | 0.0 | 0.0 | 0.00 | 0.00 | 0.00 | ||
| 20260509212148 | 29 | 155 | 0.0 | 0.0 | 0.00 | 0.00 | 0.00 | ||
| 20260509211631 | 29 | 176 | 0.0 | 0.0 | 0.00 | 0.00 | 0.00 | ||
| 20260509211114 | 30 | 175 | 0.0 | 0.0 | 0.00 | 0.00 | 0.00 | ||
| 20260509210557 | 30 | 180 | 0.0 | 0.0 | 0.00 | 0.00 | 0.00 | ||
| 20260509210040 | 30 | 186 | 0.0 | 0.0 | 0.00 | 0.00 | 0.00 | ||
| 20260509205523 | 30 | 160 | 0.0 | 0.0 | 0.00 | 0.00 | 0.00 | ||
| 20260509205006 | 30 | 151 | 0.0 | 0.0 | 0.00 | 0.00 | 0.00 | ||
| 20260509204449 | 30 | 152 | 0.0 | 0.0 | 0.00 | 0.00 | 0.00 | ||
| 20260509203932 | 30 | 161 | 0.0 | 0.0 | 0.00 | 0.00 | 0.00 | ||
| 20260509203415 | 30 | 165 | 0.0 | 0.0 | 0.00 | 0.00 | 0.00 | ||
| 20260509202858 | 30 | 161 | 0.0 | 0.0 | 0.00 | 0.00 | 0.00 | ||
| 20260509202510 | 30 | 157 | 0.0 | 0.0 | 0.00 | 0.00 | 0.00 | ||
| 20260509195159 | 30 | 151 | 0.0 | 0.0 | 0.00 | 0.00 | 0.00 | ||
| 20260509194642 | 30 | 225 | 0.0 | 0.0 | 0.00 | 0.00 | 0.00 | ||
| 20260509194125 | 30 | 225 | 0.0 | 0.0 | 0.00 | 0.00 | 0.00 | ||
| 20260509193608 | 30 | 214 | 0.0 | 0.0 | 0.00 | 0.00 | 0.00 | ||
| 20260509193051 | 30 | 250 | 0.0 | 0.0 | 0.00 | 0.00 | 0.00 | ||
| 20260509192018 | 31 | 143 | 0.0 | 0.0 | 0.00 | 0.00 | 0.00 | ||
| 20260509191500 | 31 | 148 | 0.0 | 0.0 | 0.00 | 0.00 | 0.00 | ||
| 20260509190943 | 31 | 148 | 0.0 | 0.0 | 0.00 | 0.00 | 0.00 | ||
| 20260509190426 | 31 | 155 | 0.0 | 0.0 | 0.00 | 0.00 | 0.00 | ||
| 20260509185909 | 31 | 158 | 0.0 | 0.0 | 0.00 | 0.00 | 0.00 | ||
| 20260509185352 | 31 | 147 | 0.0 | 0.0 | 0.00 | 0.00 | 0.00 | ||
| 20260509184319 | 32 | 148 | 0.0 | 0.0 | 0.00 | 0.00 | 0.00 | ||
| 20260509183801 | 32 | 155 | 0.0 | 0.0 | 0.00 | 0.00 | 0.00 | ||
| 20260509183245 | 32 | 168 | 0.0 | 0.0 | 0.00 | 0.00 | 0.00 | ||
| 20260509182727 | 32 | 156 | 0.0 | 0.0 | 0.00 | 0.00 | 0.00 | ||
| 20260509182211 | 32 | 158 | 0.0 | 0.0 | 0.00 | 0.00 | 0.00 | ||
| 20260509181653 | 32 | 157 | 0.0 | 0.0 | 0.00 | 0.00 | 0.00 | ||
| 20260509181137 | 32 | 153 | 0.0 | 0.0 | 0.00 | 0.00 | 0.00 | ||
| 20260509180619 | 32 | 149 | 0.0 | 0.0 | 0.00 | 0.00 | 0.00 | ||
| 20260509175546 | 32 | 148 | 0.0 | 0.0 | 0.00 | 0.00 | 0.00 | ||
| 20260509175029 | 32 | 156 | 0.0 | 0.0 | 0.00 | 0.00 | 0.00 | ||
| 20260509174512 | 32 | 144 | 0.0 | 0.0 | 0.00 | 0.00 | 0.00 | ||
| 20260509173955 | 32 | 149 | 0.0 | 0.0 | 0.00 | 0.00 | 0.00 | ||
| 20260509173438 | 32 | 163 | 0.0 | 0.0 | 0.00 | 0.00 | 0.00 | ||
| 20260509172921 | 32 | 148 | 0.0 | 0.0 | 0.00 | 0.00 | 0.00 | ||
| 20260509172404 | 32 | 143 | 0.0 | 0.0 | 0.00 | 0.00 | 0.00 | ||
| 20260509171847 | 32 | 146 | 0.0 | 0.0 | 0.00 | 0.00 | 0.00 | ||
| 20260509171330 | 32 | 155 | 0.0 | 0.0 | 0.00 | 0.00 | 0.00 | ||
| 20260509170813 | 32 | 154 | 0.0 | 0.0 | 0.00 | 0.00 | 0.00 | ||
| 20260509170256 | 32 | 148 | 0.0 | 0.0 | 0.00 | 0.00 | 0.00 | ||
| 20260509165739 | 32 | 164 | 0.0 | 0.0 | 0.00 | 0.00 | 0.00 | ||
| 20260509165222 | 32 | 147 | 0.0 | 0.0 | 0.00 | 0.00 | 0.00 | ||
| 20260509164705 | 32 | 149 | 0.0 | 0.0 | 0.00 | 0.00 | 0.00 | ||
| 20260509164148 | 32 | 150 | 0.0 | 0.0 | 0.00 | 0.00 | 0.00 | ||
| 20260509163631 | 32 | 150 | 0.0 | 0.0 | 0.00 | 0.00 | 0.00 | ||
| 20260509163114 | 32 | 147 | 0.0 | 0.0 | 0.00 | 0.00 | 0.00 | ||
| 20260509162557 | 32 | 153 | 0.0 | 0.0 | 0.00 | 0.00 | 0.00 | ||
| 20260509162040 | 33 | 158 | 0.0 | 0.0 | 0.00 | 0.00 | 0.00 | ||
| 20260509161523 | 33 | 150 | 0.0 | 0.0 | 0.00 | 0.00 | 0.00 | ||
| 20260509161006 | 34 | 145 | 0.0 | 0.0 | 0.00 | 0.00 | 0.00 | ||
| 20260509160449 | 34 | 161 | 0.0 | 0.0 | 0.00 | 0.00 | 0.00 | ||
| 20260509155932 | 35 | 147 | 0.0 | 0.0 | 0.00 | 0.00 | 0.00 | ||
| 20260509155415 | 36 | 145 | 0.0 | 0.0 | 0.00 | 0.00 | 0.00 | ||
| 20260509154858 | 36 | 147 | 0.0 | 0.0 | 0.00 | 0.00 | 0.00 | ||
| 20260509153824 | 37 | 145 | 0.0 | 0.0 | 0.00 | 0.00 | 0.00 | ||
| 20260509153308 | 37 | 142 | 0.0 | 0.0 | 0.00 | 0.00 | 0.00 | ||
| 20260509152750 | 37 | 137 | 0.0 | 0.0 | 0.00 | 0.00 | 0.00 | ||
| 20260509152234 | 37 | 150 | 0.0 | 0.0 | 0.00 | 0.00 | 0.00 | ||
| 20260509151716 | 38 | 146 | 0.0 | 0.0 | 0.00 | 0.00 | 0.00 | ||
| 20260509151200 | 39 | 147 | 0.0 | 0.0 | 0.00 | 0.00 | 0.00 | ||
| 20260509150642 | 39 | 154 | 0.0 | 0.0 | 0.00 | 0.00 | 0.00 | ||
| 20260509150126 | 40 | 150 | 0.0 | 0.0 | 0.00 | 0.00 | 0.00 | ||
| 20260509145608 | 40 | 150 | 0.0 | 1.0 | 0.00 | 0.00 | 0.00 | ||
| 20260509145052 | 40 | 150 | 0.0 | 1.0 | 0.00 | 0.00 | 0.00 | ||
| 20260509144534 | 40 | 147 | 0.0 | 0.0 | 0.00 | 0.00 | 0.00 | ||
| 20260509144018 | 40 | 147 | 0.0 | 0.0 | 0.00 | 0.00 | 0.00 | ||
| 20260509143500 | 41 | 150 | 0.0 | 0.0 | 0.00 | 0.00 | 0.00 | ||
| 20260509135802 | 42 | 160 | 0.0 | 0.0 | 0.00 | 0.00 | 0.00 | ||
| 20260509135245 | 42 | 162 | 0.0 | 1.0 | 0.00 | 0.00 | 0.00 | ||
| 20260509134728 | 42 | 149 | 0.0 | 0.0 | 0.00 | 0.00 | 0.00 | ||
| 20260509134211 | 42 | 151 | 0.0 | 1.0 | 0.00 | 0.00 | 0.00 | ||
| 20260509133654 | 42 | 152 | 0.0 | 1.0 | 0.00 | 0.00 | 0.00 | ||
| 20260509133137 | 42 | 164 | 0.0 | 0.0 | 0.00 | 0.00 | 0.00 | ||
| 20260509132620 | 43 | 145 | 0.0 | 0.0 | 0.00 | 0.00 | 0.00 | ||
| 20260509132103 | 42 | 147 | 0.0 | 0.0 | 0.00 | 0.00 | 0.00 | ||
| 20260509131546 | 42 | 147 | 0.0 | 0.0 | 0.00 | 0.00 | 0.00 | ||
| 20260509131029 | 42 | 147 | 0.0 | 0.0 | 0.00 | 0.00 | 0.00 | ||
| 20260509130512 | 42 | 144 | 0.0 | 0.0 | 0.00 | 0.00 | 0.00 | ||
| 20260509125955 | 42 | 144 | 0.0 | 0.0 | 0.00 | 0.00 | 0.00 | ||
| 20260509125438 | 42 | 163 | 0.0 | 1.0 | 0.00 | 0.00 | 0.00 | ||
| 20260509124921 | 42 | 153 | 0.0 | 0.0 | 0.00 | 0.00 | 0.00 | ||
| 20260509124404 | 42 | 161 | 0.0 | 0.0 | 0.00 | 0.00 | 0.00 | ||
| 20260509123847 | 42 | 141 | 0.0 | 1.0 | 0.00 | 0.00 | 0.00 | ||
| 20260509123330 | 42 | 145 | 0.0 | 0.0 | 0.00 | 0.00 | 0.00 | ||
| 20260509122813 | 42 | 152 | 0.0 | 0.0 | 0.00 | 0.00 | 0.00 | ||
| 20260509122256 | 42 | 148 | 5.0 | 8.0 | 0.00 | 0.00 | 0.00 | ||
| 20260509121739 | 42 | 143 | 0.0 | 0.0 | 0.00 | 0.00 | 0.00 | ||
| 20260509121222 | 42 | 157 | 0.0 | 0.0 | 0.00 | 0.00 | 0.00 | ||
| 20260509120705 | 42 | 157 | 0.0 | 2.0 | 0.00 | 0.00 | 0.00 | ||
| 20260509120149 | 41 | 167 | 0.0 | 1.0 | 0.00 | 0.00 | 0.00 | ||
| 20260509115631 | 41 | 156 | 0.0 | 1.0 | 0.00 | 0.00 | 0.00 | ||
| 20260509115115 | 41 | 166 | 0.0 | 0.0 | 0.00 | 0.00 | 0.00 | ||
| 20260509114557 | 41 | 148 | 0.0 | 0.0 | 0.00 | 0.00 | 0.00 | ||
| 20260509114041 | 41 | 151 | 0.0 | 0.0 | 0.00 | 0.00 | 0.00 | ||
| 20260509113523 | 41 | 151 | 0.0 | 1.0 | 0.00 | 0.00 | 0.00 | ||
| 20260509113007 | 41 | 157 | 0.0 | 1.0 | 0.00 | 0.00 | 0.00 | ||
| 20260509112449 | 41 | 166 | 0.0 | 0.0 | 0.00 | 0.00 | 0.00 | ||
| 20260509111933 | 41 | 146 | 0.0 | 0.0 | 0.00 | 0.00 | 0.00 | ||
| 20260509111415 | 41 | 167 | 0.0 | 0.0 | 0.00 | 0.00 | 0.00 | ||
| 20260509110859 | 41 | 175 | 0.0 | 0.0 | 0.00 | 0.00 | 0.00 | ||
| 20260509110342 | 41 | 162 | 0.0 | 1.0 | 0.00 | 0.00 | 0.00 | ||
| 20260509105825 | 40 | 171 | 0.0 | 0.0 | 0.00 | 0.00 | 0.00 | ||
| 20260509105308 | 40 | 180 | 0.0 | 0.0 | 0.00 | 0.00 | 0.00 | ||
| 20260509104751 | 40 | 159 | 0.0 | 1.0 | 0.00 | 0.00 | 0.00 | ||
| 20260509104234 | 40 | 150 | 0.0 | 0.0 | 0.00 | 0.00 | 0.00 | ||
| 20260509103717 | 40 | 156 | 0.0 | 0.0 | 0.00 | 0.00 | 0.00 | ||
| 20260509102643 | 40 | 156 | 0.0 | 1.0 | 0.00 | 0.00 | 0.00 | ||
| 20260509102126 | 40 | 163 | 0.0 | 0.0 | 0.00 | 0.00 | 0.00 | ||
| 20260509101609 | 40 | 165 | 0.0 | 0.0 | 0.00 | 0.00 | 0.00 | ||
| 20260509101052 | 40 | 142 | 0.0 | 0.0 | 0.00 | 0.00 | 0.00 | ||
| 20260509100535 | 40 | 145 | 0.0 | 0.0 | 0.00 | 0.00 | 0.00 | ||
| 20260509100018 | 40 | 157 | 0.0 | 1.0 | 0.00 | 0.00 | 0.00 | ||
| 20260509095501 | 40 | 169 | 0.0 | 0.0 | 0.00 | 0.00 | 0.00 | ||
| 20260509094944 | 40 | 170 | 0.0 | 0.0 | 0.00 | 0.00 | 0.00 | ||
| 20260509094427 | 40 | 172 | 0.0 | 0.0 | 0.00 | 0.00 | 0.00 | ||
| 20260509093910 | 40 | 163 | 0.0 | 0.0 | 0.00 | 0.00 | 0.00 | ||
| 20260509093353 | 40 | 147 | 0.0 | 1.0 | 0.00 | 0.00 | 0.00 | ||
| 20260509092836 | 40 | 146 | 0.0 | 1.0 | 0.00 | 0.00 | 0.00 | ||
| 20260509092319 | 41 | 149 | 0.0 | 0.0 | 0.00 | 0.00 | 0.00 | ||
| 20260509091802 | 40 | 154 | 0.0 | 1.0 | 0.00 | 0.00 | 0.00 | ||
| 20260509091245 | 40 | 160 | 0.0 | 0.0 | 0.00 | 0.00 | 0.00 |